AFR4332 LFPG-HECA

Flight info

Callsign AFR4332
Flight time 3h 43m
Altitude 41000
Route BUBLI DCT LUVAL DCT SHARA DCT DEVDI DCT RIPUS DCT RESIA DCT IXONA DCT SAL DCT UVODI DCT AMUGO DCT VAKSU DCT KOFER DCT PINDO DCT PIKOS DCT KEA UN132 KUPIS DCT LAPSO UN132 KUMBI L612 BLT
Aircraft A388/J-SADE2E3FGHIJ3J4J5M1RWXY/LB1D1

Departure

Time 2026-05-05 15:52
Airport Charles de Gaulle International Airport (LFPG)

Arrival

Time 2026-05-05 19:35
Airport Cairo International Airport (HECA)
Time Latitude Longitude Altitude Speed Heading
2026-05-05 15:01 49.00286 2.58633 359 ft 0 kts 265°
2026-05-05 15:37 49.00287 2.58638 359 ft 3 kts 265°
2026-05-05 15:37 49.00289 2.58678 361 ft 4 kts 265°
2026-05-05 15:38 49.00291 2.58714 368 ft 4 kts 262°
2026-05-05 15:38 49.00299 2.58750 368 ft 4 kts 221°
2026-05-05 15:38 49.00319 2.58759 367 ft 4 kts 163°
2026-05-05 15:38 49.00344 2.58745 366 ft 4 kts 161°
2026-05-05 15:39 49.00357 2.58740 366 ft 2 kts 175°
2026-05-05 15:41 49.00349 2.58741 367 ft 2 kts 175°
2026-05-05 15:42 49.00331 2.58743 364 ft 3 kts 175°
2026-05-05 15:42 49.00298 2.58746 368 ft 7 kts 175°
2026-05-05 15:42 49.00229 2.58757 363 ft 13 kts 174°
2026-05-05 15:42 49.00123 2.58769 362 ft 11 kts 183°
2026-05-05 15:43 49.00062 2.58746 366 ft 9 kts 213°
2026-05-05 15:43 49.00032 2.58674 361 ft 8 kts 259°
2026-05-05 15:43 49.00024 2.58577 359 ft 11 kts 265°
2026-05-05 15:43 49.00017 2.58434 367 ft 16 kts 266°
2026-05-05 15:44 49.00008 2.58248 363 ft 19 kts 266°
2026-05-05 15:44 48.99999 2.58058 362 ft 17 kts 264°
2026-05-05 15:44 48.99988 2.57878 367 ft 17 kts 265°
2026-05-05 15:44 48.99978 2.57705 362 ft 16 kts 265°
2026-05-05 15:45 48.99969 2.57536 359 ft 16 kts 265°
2026-05-05 15:45 48.99960 2.57374 365 ft 15 kts 265°
2026-05-05 15:45 48.99952 2.57215 362 ft 15 kts 265°
2026-05-05 15:45 48.99944 2.57059 366 ft 15 kts 265°
2026-05-05 15:46 48.99936 2.56906 359 ft 14 kts 265°
2026-05-05 15:46 48.99928 2.56757 366 ft 14 kts 265°
2026-05-05 15:46 48.99919 2.56610 365 ft 14 kts 264°
2026-05-05 15:46 48.99911 2.56464 364 ft 14 kts 265°
2026-05-05 15:47 48.99903 2.56318 363 ft 14 kts 266°
2026-05-05 15:47 48.99899 2.56222 361 ft 14 kts 266°
2026-05-05 15:47 48.99889 2.56029 359 ft 14 kts 268°
2026-05-05 15:47 48.99897 2.55890 359 ft 12 kts 269°
2026-05-05 15:48 48.99861 2.55808 365 ft 10 kts 193°
2026-05-05 15:48 48.99786 2.55781 365 ft 11 kts 203°
2026-05-05 15:48 48.99752 2.55706 365 ft 7 kts 259°
2026-05-05 15:48 48.99746 2.55638 359 ft 7 kts 265°
2026-05-05 15:49 48.99742 2.55557 361 ft 8 kts 266°
2026-05-05 15:49 48.99728 2.55487 366 ft 6 kts 221°
2026-05-05 15:49 48.99725 2.55483 366 ft 0 kts 217°
2026-05-05 15:49 48.99722 2.55480 366 ft 2 kts 217°
2026-05-05 15:50 48.99698 2.55465 367 ft 5 kts 182°
2026-05-05 15:50 48.99648 2.55487 368 ft 10 kts 154°
2026-05-05 15:50 48.99589 2.55586 363 ft 13 kts 101°
2026-05-05 15:50 48.99590 2.55671 362 ft 31 kts 85°
2026-05-05 15:51 48.99636 2.56467 369 ft 112 kts 87°
2026-05-05 15:51 48.99710 2.57001 363 ft 104 kts 76°
2026-05-05 15:51 48.99795 2.58083 364 ft 132 kts 94°
2026-05-05 15:51 48.99790 2.59777 425 ft 178 kts 87°
2026-05-05 15:52 48.99802 2.61724 944 ft 188 kts 83°
2026-05-05 15:52 48.99932 2.63802 1266 ft 204 kts 80°
2026-05-05 15:52 49.00112 2.66069 1531 ft 227 kts 81°
2026-05-05 15:52 49.00276 2.68553 2019 ft 248 kts 83°
2026-05-05 15:53 49.00420 2.71204 2887 ft 251 kts 84°
2026-05-05 15:53 49.00555 2.73866 3820 ft 256 kts 84°
2026-05-05 15:53 49.00695 2.76585 4739 ft 259 kts 84°
2026-05-05 15:53 49.00730 2.79322 5633 ft 264 kts 96°
2026-05-05 15:54 49.00413 2.82090 6535 ft 265 kts 98°
2026-05-05 15:54 49.00091 2.84881 7394 ft 270 kts 98°
2026-05-05 15:54 48.99770 2.87706 8277 ft 273 kts 98°
2026-05-05 15:54 48.99445 2.90589 9065 ft 280 kts 98°
2026-05-05 15:55 48.99112 2.93516 10027 ft 281 kts 99°
2026-05-05 15:55 48.98766 2.96546 10386 ft 302 kts 100°
2026-05-05 15:55 48.98065 2.99637 10636 ft 322 kts 114°
2026-05-05 15:55 48.97098 3.02805 11090 ft 333 kts 114°
2026-05-05 15:56 48.96120 3.06009 11825 ft 336 kts 115°
2026-05-05 15:56 48.95130 3.09267 12375 ft 345 kts 116°
2026-05-05 15:56 48.94106 3.12632 13000 ft 350 kts 116°
2026-05-05 15:56 48.93081 3.15994 13690 ft 354 kts 116°
2026-05-05 15:57 48.92053 3.19365 14311 ft 356 kts 116°
2026-05-05 15:57 48.90990 3.22844 14955 ft 359 kts 117°
2026-05-05 15:57 48.89933 3.26301 15576 ft 363 kts 117°
2026-05-05 15:57 48.88866 3.29791 16217 ft 366 kts 117°
2026-05-05 15:58 48.87799 3.33271 16826 ft 369 kts 117°
2026-05-05 15:58 48.86709 3.36822 17419 ft 372 kts 117°
2026-05-05 15:58 48.85608 3.40408 18048 ft 376 kts 117°
2026-05-05 15:58 48.84495 3.44024 18588 ft 378 kts 117°
2026-05-05 15:59 48.83381 3.47637 19139 ft 380 kts 116°
2026-05-05 15:59 48.82270 3.51284 19693 ft 381 kts 115°
2026-05-05 15:59 48.81396 3.55115 20230 ft 385 kts 107°
2026-05-05 15:59 48.80880 3.58988 20762 ft 388 kts 99°
2026-05-05 16:00 48.80623 3.63105 21289 ft 390 kts 97°
2026-05-05 16:00 48.80374 3.67194 21823 ft 392 kts 97°
2026-05-05 16:00 48.80110 3.71295 22342 ft 394 kts 97°
2026-05-05 16:00 48.79837 3.75434 22876 ft 396 kts 97°
2026-05-05 16:01 48.79557 3.79643 23395 ft 398 kts 97°
2026-05-05 16:01 48.79284 3.83753 23804 ft 400 kts 97°
2026-05-05 16:01 48.79001 3.87985 24131 ft 403 kts 97°
2026-05-05 16:01 48.78719 3.92221 24678 ft 402 kts 97°
2026-05-05 16:02 48.78435 3.96440 25070 ft 406 kts 97°
2026-05-05 16:02 48.78144 4.00730 25494 ft 408 kts 97°
2026-05-05 16:02 48.77851 4.05023 25967 ft 411 kts 97°
2026-05-05 16:02 48.77545 4.09360 26443 ft 413 kts 99°
2026-05-05 16:03 48.76914 4.13580 26914 ft 414 kts 109°
2026-05-05 16:03 48.75792 4.17612 27428 ft 415 kts 119°
2026-05-05 16:03 48.74231 4.21319 27935 ft 416 kts 126°
2026-05-05 16:03 48.72527 4.24883 28414 ft 420 kts 126°
2026-05-05 16:04 48.70847 4.28452 28981 ft 422 kts 126°
2026-05-05 16:04 48.69139 4.32095 29495 ft 427 kts 126°
2026-05-05 16:04 48.67411 4.35777 30122 ft 427 kts 126°
2026-05-05 16:04 48.65690 4.39435 30638 ft 429 kts 126°
2026-05-05 16:05 48.63998 4.43024 31013 ft 433 kts 126°
2026-05-05 16:05 48.62248 4.46730 31411 ft 434 kts 126°
2026-05-05 16:05 48.60490 4.50446 31859 ft 435 kts 126°
2026-05-05 16:05 48.58722 4.54180 32249 ft 439 kts 126°
2026-05-05 16:06 48.56930 4.57956 32580 ft 444 kts 126°
2026-05-05 16:06 48.55120 4.61766 32945 ft 448 kts 126°
2026-05-05 16:06 48.53288 4.65617 33283 ft 453 kts 126°
2026-05-05 16:06 48.51457 4.69460 33702 ft 456 kts 126°
2026-05-05 16:07 48.49602 4.73348 34030 ft 460 kts 127°
2026-05-05 16:07 48.47715 4.77297 34289 ft 465 kts 127°
2026-05-05 16:07 48.45819 4.81259 34617 ft 468 kts 127°
2026-05-05 16:07 48.43904 4.85257 35005 ft 470 kts 127°
2026-05-05 16:08 48.41989 4.89248 35392 ft 472 kts 128°
2026-05-05 16:08 48.40062 4.93258 35794 ft 473 kts 128°
2026-05-05 16:08 48.38118 4.97296 36205 ft 475 kts 128°
2026-05-05 16:08 48.36171 5.01336 36606 ft 477 kts 128°
2026-05-05 16:09 48.34251 5.05314 36992 ft 478 kts 128°
2026-05-05 16:09 48.32258 5.09461 37378 ft 480 kts 127°
2026-05-05 16:09 48.30519 5.13654 37719 ft 484 kts 121°
2026-05-05 16:09 48.29028 5.18201 38162 ft 486 kts 116°
2026-05-05 16:10 48.27831 5.22965 38567 ft 490 kts 111°
2026-05-05 16:10 48.26858 5.27876 38886 ft 491 kts 109°
2026-05-05 16:10 48.25908 5.32687 39204 ft 491 kts 109°
2026-05-05 16:10 48.24923 5.37612 39522 ft 491 kts 110°
2026-05-05 16:11 48.23933 5.42517 39841 ft 492 kts 110°
2026-05-05 16:11 48.20968 5.57105 40744 ft 493 kts 110°
2026-05-05 16:12 48.19971 5.61981 40823 ft 500 kts 110°
2026-05-05 16:12 48.17986 5.71677 40832 ft 488 kts 110°
2026-05-05 16:13 48.14968 5.86311 40813 ft 491 kts 110°
2026-05-05 16:13 48.13288 5.94416 40829 ft 491 kts 110°
2026-05-05 16:14 48.09245 6.13784 40830 ft 491 kts 110°
2026-05-05 16:15 48.05142 6.33244 40835 ft 490 kts 110°
2026-05-05 16:16 48.01001 6.52710 40847 ft 491 kts 110°
2026-05-05 16:17 47.97863 6.67271 40847 ft 490 kts 112°
2026-05-05 16:18 47.94085 6.81341 40835 ft 488 kts 115°
2026-05-05 16:19 47.90259 6.95466 40849 ft 489 kts 115°
2026-05-05 16:19 47.86409 7.09550 40844 ft 489 kts 115°
2026-05-05 16:20 47.81253 7.28281 40845 ft 489 kts 115°
2026-05-05 16:22 47.74695 7.51572 40857 ft 488 kts 120°
2026-05-05 16:23 47.67219 7.68227 40846 ft 485 kts 129°
2026-05-05 16:23 47.61213 7.80311 40871 ft 484 kts 129°
2026-05-05 16:24 47.57202 7.88349 40867 ft 484 kts 129°
2026-05-05 16:25 47.51189 8.00349 40840 ft 484 kts 130°
2026-05-05 16:25 47.45162 8.12323 40833 ft 485 kts 130°
2026-05-05 16:26 47.37085 8.28287 40862 ft 484 kts 130°
2026-05-05 16:27 47.33042 8.36244 40859 ft 485 kts 130°
2026-05-05 16:27 47.28985 8.44205 40873 ft 485 kts 130°
2026-05-05 16:28 47.24924 8.52165 40875 ft 486 kts 130°
2026-05-05 16:28 47.20940 8.60238 40872 ft 486 kts 129°
2026-05-05 16:29 47.16991 8.68265 40868 ft 486 kts 129°
2026-05-05 16:29 47.13013 8.76288 40870 ft 487 kts 130°
2026-05-05 16:30 47.09007 8.84329 40864 ft 486 kts 130°
2026-05-05 16:30 47.05026 8.92299 40862 ft 486 kts 130°
2026-05-05 16:31 47.01026 9.00282 40868 ft 485 kts 130°
2026-05-05 16:31 46.97009 9.08286 40878 ft 487 kts 130°
2026-05-05 16:32 46.92984 9.16267 40893 ft 487 kts 130°
2026-05-05 16:32 46.88950 9.24247 40887 ft 487 kts 130°
2026-05-05 16:33 46.84946 9.32149 40880 ft 487 kts 130°
2026-05-05 16:33 46.80905 9.40100 40879 ft 486 kts 130°
2026-05-05 16:34 46.76855 9.48047 40898 ft 488 kts 130°
2026-05-05 16:34 46.72820 9.55940 40930 ft 487 kts 130°
2026-05-05 16:35 46.68733 9.63914 40942 ft 488 kts 131°
2026-05-05 16:35 46.64672 9.71813 40954 ft 486 kts 130°
2026-05-05 16:36 46.60620 9.79674 40962 ft 487 kts 131°
2026-05-05 16:36 46.56565 9.87515 40969 ft 487 kts 131°
2026-05-05 16:37 46.52502 9.95349 40958 ft 489 kts 131°
2026-05-05 16:37 46.48399 10.03238 40967 ft 486 kts 131°
2026-05-05 16:38 46.44652 10.11510 40960 ft 490 kts 126°
2026-05-05 16:38 46.40991 10.19892 40966 ft 491 kts 126°
2026-05-05 16:39 46.37307 10.28284 40970 ft 492 kts 127°
2026-05-05 16:39 46.33621 10.36639 40987 ft 492 kts 127°
2026-05-05 16:40 46.29950 10.44919 40982 ft 492 kts 127°
2026-05-05 16:40 46.26244 10.53262 40993 ft 492 kts 127°
2026-05-05 16:41 46.22586 10.61469 40998 ft 493 kts 127°
2026-05-05 16:41 46.18870 10.69778 40497 ft 492 kts 124°
2026-05-05 16:42 46.17010 10.73929 41152 ft 495 kts 127°
2026-05-05 16:42 46.15133 10.78112 41046 ft 493 kts 126°
2026-05-05 16:42 46.11399 10.86420 41011 ft 494 kts 127°
2026-05-05 16:43 46.07687 10.94651 41018 ft 493 kts 127°
2026-05-05 16:43 46.03933 11.02948 41016 ft 493 kts 127°
2026-05-05 16:44 46.00182 11.11215 40994 ft 493 kts 127°
2026-05-05 16:44 45.96409 11.19502 41006 ft 494 kts 127°
2026-05-05 16:45 45.92638 11.27766 41015 ft 494 kts 127°
2026-05-05 16:45 45.88864 11.36012 41004 ft 494 kts 127°
2026-05-05 16:46 45.85086 11.44241 41015 ft 494 kts 127°
2026-05-05 16:46 45.81321 11.52420 41017 ft 494 kts 127°
2026-05-05 16:47 45.77526 11.60637 41010 ft 494 kts 127°
2026-05-05 16:47 45.73726 11.68844 41009 ft 494 kts 127°
2026-05-05 16:48 45.69919 11.77040 41013 ft 494 kts 127°
2026-05-05 16:48 45.66104 11.85227 41011 ft 495 kts 127°
2026-05-05 16:49 45.62304 11.93364 41018 ft 495 kts 127°
2026-05-05 16:49 45.58479 12.01528 41018 ft 495 kts 127°
2026-05-05 16:50 45.54636 12.09709 41017 ft 494 kts 127°
2026-05-05 16:50 45.50812 12.17822 41012 ft 496 kts 127°
2026-05-05 16:51 45.46957 12.25979 40994 ft 495 kts 127°
2026-05-05 16:51 45.43105 12.34109 40994 ft 496 kts 127°
2026-05-05 16:52 45.39235 12.42252 40991 ft 495 kts 127°
2026-05-05 16:52 45.35372 12.50356 40979 ft 495 kts 127°
2026-05-05 16:53 45.31500 12.58456 40982 ft 495 kts 127°
2026-05-05 16:53 45.28281 12.65173 40976 ft 495 kts 127°
2026-05-05 16:54 45.24395 12.73261 40970 ft 497 kts 128°
2026-05-05 16:54 45.20528 12.81287 40957 ft 497 kts 127°
2026-05-05 16:55 45.18577 12.85323 41061 ft 495 kts 127°
2026-05-05 16:55 45.16628 12.89358 40996 ft 502 kts 127°
2026-05-05 16:55 45.12698 12.97472 40963 ft 496 kts 128°
2026-05-05 16:56 45.08788 13.05514 40960 ft 497 kts 128°
2026-05-05 16:56 45.04870 13.13554 40948 ft 497 kts 128°
2026-05-05 16:57 45.00957 13.21560 40967 ft 497 kts 128°
2026-05-05 16:57 44.97014 13.29605 40969 ft 499 kts 128°
2026-05-05 16:58 44.93056 13.37661 40969 ft 499 kts 128°
2026-05-05 16:58 44.89085 13.45722 40973 ft 499 kts 128°
2026-05-05 16:59 44.85125 13.53745 40996 ft 498 kts 128°
2026-05-05 16:59 44.80908 13.61496 41003 ft 497 kts 130°
2026-05-05 17:00 44.76731 13.69173 41005 ft 497 kts 130°
2026-05-05 17:00 44.72510 13.76897 41006 ft 500 kts 131°
2026-05-05 17:01 44.68242 13.84665 41008 ft 500 kts 131°
2026-05-05 17:01 44.63982 13.92390 41007 ft 500 kts 131°
2026-05-05 17:02 44.59727 14.00087 41002 ft 500 kts 131°
2026-05-05 17:02 44.55452 14.07797 40988 ft 500 kts 131°
2026-05-05 17:03 44.51170 14.15502 40999 ft 500 kts 131°
2026-05-05 17:03 44.46915 14.23137 40998 ft 502 kts 131°
2026-05-05 17:04 44.42614 14.30835 41002 ft 502 kts 131°
2026-05-05 17:04 44.38289 14.38553 41006 ft 502 kts 131°
2026-05-05 17:05 44.33990 14.46205 41007 ft 502 kts 131°
2026-05-05 17:05 44.29666 14.53882 41007 ft 502 kts 131°
2026-05-05 17:06 44.25335 14.61550 41009 ft 502 kts 131°
2026-05-05 17:06 44.20998 14.69209 41010 ft 504 kts 131°
2026-05-05 17:07 44.16665 14.76841 41010 ft 504 kts 131°
2026-05-05 17:07 44.12311 14.84488 41009 ft 504 kts 131°
2026-05-05 17:08 44.07943 14.92142 41004 ft 504 kts 131°
2026-05-05 17:08 44.03578 14.99768 41010 ft 504 kts 131°
2026-05-05 17:09 43.99207 15.07385 41022 ft 505 kts 131°
2026-05-05 17:09 43.94813 15.15023 41034 ft 505 kts 131°
2026-05-05 17:10 43.90427 15.22559 41042 ft 505 kts 132°
2026-05-05 17:10 43.85972 15.30080 41036 ft 505 kts 132°
2026-05-05 17:11 43.81516 15.37602 41045 ft 504 kts 132°
2026-05-05 17:11 43.77064 15.45112 41039 ft 504 kts 132°
2026-05-05 17:12 43.72608 15.52609 41042 ft 504 kts 132°
2026-05-05 17:12 43.68146 15.60097 41036 ft 504 kts 132°
2026-05-05 17:13 43.63687 15.67560 41042 ft 503 kts 132°
2026-05-05 17:13 43.59224 15.75012 41035 ft 503 kts 132°
2026-05-05 17:14 43.54762 15.82441 41043 ft 503 kts 132°
2026-05-05 17:14 43.50319 15.89821 41042 ft 503 kts 132°
2026-05-05 17:15 43.45834 15.97251 41044 ft 505 kts 132°
2026-05-05 17:15 43.41311 16.04725 41044 ft 504 kts 132°
2026-05-05 17:16 43.36847 16.12082 41046 ft 504 kts 132°
2026-05-05 17:16 43.32362 16.19456 41046 ft 504 kts 132°
2026-05-05 17:17 43.27841 16.26871 41043 ft 504 kts 132°
2026-05-05 17:17 43.23333 16.34244 41033 ft 505 kts 132°
2026-05-05 17:18 43.18816 16.41614 41037 ft 504 kts 132°
2026-05-05 17:18 43.14311 16.48947 41039 ft 504 kts 132°
2026-05-05 17:19 43.09865 16.56389 41040 ft 506 kts 128°
2026-05-05 17:19 43.05719 16.64174 41036 ft 506 kts 128°
2026-05-05 17:20 43.01576 16.71922 41038 ft 505 kts 128°
2026-05-05 17:20 42.97399 16.79686 41031 ft 506 kts 128°
2026-05-05 17:21 42.93254 16.87368 41038 ft 507 kts 128°
2026-05-05 17:22 42.86958 16.98996 41037 ft 506 kts 128°
2026-05-05 17:22 42.82756 17.06730 41056 ft 506 kts 128°
2026-05-05 17:23 42.78595 17.14370 41038 ft 506 kts 128°
2026-05-05 17:23 42.74388 17.22075 41033 ft 506 kts 128°
2026-05-05 17:24 42.70179 17.29764 41024 ft 506 kts 128°
2026-05-05 17:24 42.65959 17.37452 41034 ft 508 kts 128°
2026-05-05 17:25 42.61781 17.45046 41053 ft 507 kts 128°
2026-05-05 17:25 42.57506 17.52796 41063 ft 507 kts 128°
2026-05-05 17:26 42.53272 17.60453 41060 ft 507 kts 128°
2026-05-05 17:26 42.49058 17.68054 41061 ft 507 kts 128°
2026-05-05 17:27 42.44815 17.75689 41048 ft 507 kts 128°
2026-05-05 17:27 42.40563 17.83321 41056 ft 509 kts 128°
2026-05-05 17:28 42.36294 17.90963 41063 ft 508 kts 128°
2026-05-05 17:28 42.32024 17.98590 41065 ft 508 kts 128°
2026-05-05 17:29 42.27749 18.06204 41068 ft 508 kts 128°
2026-05-05 17:29 42.23469 18.13809 41067 ft 508 kts 128°
2026-05-05 17:30 42.19215 18.21348 41066 ft 508 kts 128°
2026-05-05 17:30 42.14914 18.28951 41053 ft 508 kts 128°
2026-05-05 17:31 42.10607 18.36544 41064 ft 511 kts 128°
2026-05-05 17:31 42.06275 18.44164 41072 ft 511 kts 128°
2026-05-05 17:32 42.01982 18.51698 41059 ft 510 kts 129°
2026-05-05 17:32 41.97412 18.58973 41067 ft 510 kts 132°
2026-05-05 17:33 41.92789 18.66239 41067 ft 510 kts 131°
2026-05-05 17:33 41.88261 18.73587 41072 ft 510 kts 130°
2026-05-05 17:34 41.83778 18.81013 41070 ft 512 kts 130°
2026-05-05 17:34 41.79279 18.88405 41072 ft 511 kts 130°
2026-05-05 17:35 41.74797 18.95725 41073 ft 512 kts 130°
2026-05-05 17:35 41.71013 19.01887 41081 ft 512 kts 130°
2026-05-05 17:36 41.65749 19.10441 41080 ft 512 kts 130°
2026-05-05 17:36 41.61215 19.17788 41084 ft 512 kts 130°
2026-05-05 17:37 41.57440 19.23891 41083 ft 512 kts 130°
2026-05-05 17:37 41.52152 19.32420 41086 ft 512 kts 130°
2026-05-05 17:38 41.48340 19.38556 41090 ft 512 kts 130°
2026-05-05 17:38 41.43794 19.45853 41091 ft 512 kts 130°
2026-05-05 17:39 41.39256 19.53121 41095 ft 513 kts 130°
2026-05-05 17:39 41.34691 19.60415 41093 ft 513 kts 130°
2026-05-05 17:40 41.30113 19.67713 41085 ft 513 kts 130°
2026-05-05 17:40 41.25540 19.74984 41102 ft 512 kts 130°
2026-05-05 17:41 41.20945 19.82273 41106 ft 515 kts 130°
2026-05-05 17:41 41.16362 19.89525 41100 ft 515 kts 130°
2026-05-05 17:42 41.11748 19.96810 41107 ft 515 kts 130°
2026-05-05 17:42 41.07133 20.04078 41104 ft 514 kts 130°
2026-05-05 17:43 41.02505 20.11350 41112 ft 515 kts 130°
2026-05-05 17:43 40.97896 20.18573 41113 ft 516 kts 130°
2026-05-05 17:44 40.93240 20.25853 41114 ft 516 kts 130°
2026-05-05 17:44 40.88649 20.33015 41116 ft 517 kts 130°
2026-05-05 17:45 40.83957 20.40317 41114 ft 517 kts 130°
2026-05-05 17:45 40.79322 20.47514 41116 ft 516 kts 130°
2026-05-05 17:46 40.74659 20.54738 41109 ft 518 kts 130°
2026-05-05 17:46 40.69981 20.61965 41105 ft 517 kts 131°
2026-05-05 17:47 40.65305 20.69173 41108 ft 518 kts 130°
2026-05-05 17:47 40.60612 20.76391 41099 ft 517 kts 131°
2026-05-05 17:48 40.55952 20.83540 41099 ft 520 kts 130°
2026-05-05 17:48 40.51244 20.90748 41095 ft 520 kts 130°
2026-05-05 17:49 40.46304 20.97673 41094 ft 519 kts 139°
2026-05-05 17:49 40.40846 21.03922 41086 ft 517 kts 140°
2026-05-05 17:50 40.35438 21.10157 41087 ft 517 kts 140°
2026-05-05 17:50 40.30019 21.16391 41077 ft 519 kts 139°
2026-05-05 17:51 40.24628 21.22575 41079 ft 520 kts 139°
2026-05-05 17:51 40.19144 21.28851 41073 ft 520 kts 139°
2026-05-05 17:52 40.13719 21.35046 41077 ft 520 kts 140°
2026-05-05 17:52 40.08263 21.41261 41067 ft 519 kts 140°
2026-05-05 17:53 40.02815 21.47453 41066 ft 520 kts 140°
2026-05-05 17:53 39.97376 21.53623 41070 ft 519 kts 140°
2026-05-05 17:54 39.91982 21.59890 41049 ft 520 kts 138°
2026-05-05 17:54 39.86657 21.66328 41061 ft 520 kts 138°
2026-05-05 17:55 39.81370 21.72673 41061 ft 520 kts 139°
2026-05-05 17:55 39.76027 21.79039 41060 ft 520 kts 139°
2026-05-05 17:56 39.70676 21.85394 41046 ft 520 kts 138°
2026-05-05 17:56 39.65337 21.91720 41045 ft 520 kts 138°
2026-05-05 17:57 39.59978 21.98060 41031 ft 521 kts 139°
2026-05-05 17:57 39.54608 22.04395 41029 ft 521 kts 139°
2026-05-05 17:58 39.49274 22.10675 41023 ft 521 kts 139°
2026-05-05 17:58 39.43910 22.16976 41023 ft 521 kts 139°
2026-05-05 17:59 39.38528 22.23286 41023 ft 521 kts 139°
2026-05-05 17:59 39.33159 22.29567 41024 ft 521 kts 139°
2026-05-05 18:00 39.27800 22.35821 41026 ft 522 kts 139°
2026-05-05 18:00 39.22401 22.42108 41033 ft 521 kts 139°
2026-05-05 18:01 39.16996 22.48389 41045 ft 523 kts 139°
2026-05-05 18:01 39.11592 22.54656 41030 ft 522 kts 140°
2026-05-05 18:02 39.06189 22.60909 41034 ft 523 kts 140°
2026-05-05 18:02 39.00802 22.67129 41035 ft 523 kts 140°
2026-05-05 18:03 38.95381 22.73375 41040 ft 523 kts 140°
2026-05-05 18:03 38.89981 22.79584 41050 ft 523 kts 140°
2026-05-05 18:04 38.84528 22.85839 41051 ft 525 kts 140°
2026-05-05 18:04 38.79075 22.92082 41053 ft 526 kts 140°
2026-05-05 18:05 38.73613 22.98321 41055 ft 526 kts 140°
2026-05-05 18:05 38.68144 23.04555 41053 ft 526 kts 140°
2026-05-05 18:06 38.63192 23.10189 41056 ft 526 kts 140°
2026-05-05 18:06 38.57739 23.16379 41056 ft 528 kts 140°
2026-05-05 18:07 38.52239 23.22611 41045 ft 528 kts 140°
2026-05-05 18:07 38.46727 23.28843 41063 ft 529 kts 140°
2026-05-05 18:08 38.41214 23.35062 41063 ft 529 kts 140°
2026-05-05 18:08 38.35693 23.41276 41064 ft 529 kts 140°
2026-05-05 18:09 38.30155 23.47495 41070 ft 531 kts 140°
2026-05-05 18:09 38.24610 23.53712 41073 ft 531 kts 140°
2026-05-05 18:10 38.19065 23.59915 41044 ft 531 kts 140°
2026-05-05 18:10 38.13561 23.66059 41049 ft 531 kts 140°
2026-05-05 18:11 38.08005 23.72248 41055 ft 531 kts 140°
2026-05-05 18:11 38.02445 23.78426 41057 ft 531 kts 140°
2026-05-05 18:12 37.96887 23.84592 41047 ft 530 kts 140°
2026-05-05 18:12 37.91324 23.90751 41075 ft 531 kts 140°
2026-05-05 18:13 37.85752 23.96905 41079 ft 531 kts 140°
2026-05-05 18:13 37.80178 24.03049 41075 ft 531 kts 140°
2026-05-05 18:14 37.74636 24.09144 41076 ft 531 kts 140°
2026-05-05 18:14 37.69060 24.15266 41074 ft 529 kts 140°
2026-05-05 18:15 37.63477 24.21384 41073 ft 532 kts 140°
2026-05-05 18:15 37.57885 24.27502 41070 ft 532 kts 140°
2026-05-05 18:16 37.52413 24.33703 41068 ft 532 kts 136°
2026-05-05 18:16 37.47209 24.40324 41073 ft 532 kts 135°
2026-05-05 18:17 37.41987 24.46895 41073 ft 529 kts 135°
2026-05-05 18:17 37.36739 24.53402 41069 ft 532 kts 136°
2026-05-05 18:18 37.31467 24.59907 41069 ft 531 kts 136°
2026-05-05 18:18 37.26187 24.66408 41064 ft 531 kts 136°
2026-05-05 18:19 37.20905 24.72900 41065 ft 531 kts 136°
2026-05-05 18:19 37.15629 24.79372 41064 ft 531 kts 136°
2026-05-05 18:20 37.10372 24.85807 41069 ft 531 kts 136°
2026-05-05 18:20 37.05079 24.92274 41072 ft 532 kts 136°
2026-05-05 18:21 36.99767 24.98749 41075 ft 532 kts 136°
2026-05-05 18:21 36.95355 25.04115 41074 ft 530 kts 136°
2026-05-05 18:22 36.90071 25.10522 41073 ft 529 kts 136°
2026-05-05 18:22 36.84730 25.16860 41071 ft 530 kts 137°
2026-05-05 18:23 36.79378 25.23193 41066 ft 530 kts 137°
2026-05-05 18:23 36.74045 25.29505 41065 ft 532 kts 137°
2026-05-05 18:24 36.68640 25.35892 41061 ft 529 kts 137°
2026-05-05 18:24 36.63317 25.42190 41064 ft 527 kts 136°
2026-05-05 18:25 36.58096 25.48550 41063 ft 528 kts 136°
2026-05-05 18:25 36.52837 25.54954 41073 ft 528 kts 136°
2026-05-05 18:26 36.47570 25.61332 41054 ft 529 kts 136°
2026-05-05 18:26 36.42284 25.67713 41072 ft 528 kts 136°
2026-05-05 18:27 36.37032 25.74041 41072 ft 526 kts 136°
2026-05-05 18:27 36.31769 25.80368 41069 ft 527 kts 136°
2026-05-05 18:28 36.23869 25.89844 41072 ft 527 kts 136°
2026-05-05 18:28 36.18569 25.96123 41075 ft 527 kts 137°
2026-05-05 18:29 36.13291 26.02332 41060 ft 527 kts 137°
2026-05-05 18:29 36.07983 26.08574 41059 ft 527 kts 137°
2026-05-05 18:30 36.02665 26.14819 41078 ft 527 kts 137°
2026-05-05 18:30 35.97344 26.21057 41082 ft 527 kts 137°
2026-05-05 18:31 35.92017 26.27288 41094 ft 527 kts 137°
2026-05-05 18:31 35.86725 26.33467 41073 ft 526 kts 137°
2026-05-05 18:32 35.81390 26.39683 41068 ft 528 kts 137°
2026-05-05 18:32 35.76049 26.45895 41077 ft 527 kts 137°
2026-05-05 18:33 35.70711 26.52091 41076 ft 528 kts 137°
2026-05-05 18:33 35.65361 26.58290 41066 ft 528 kts 138°
2026-05-05 18:34 35.60012 26.64475 41079 ft 527 kts 138°
2026-05-05 18:34 35.54711 26.70593 41077 ft 527 kts 138°
2026-05-05 18:35 35.49352 26.76765 41070 ft 528 kts 138°
2026-05-05 18:35 35.43991 26.82928 41063 ft 528 kts 138°
2026-05-05 18:36 35.38611 26.89103 41061 ft 527 kts 138°
2026-05-05 18:36 35.33289 26.95198 41053 ft 526 kts 138°
2026-05-05 18:37 35.27929 27.01324 41056 ft 527 kts 138°
2026-05-05 18:37 35.22558 27.07452 41055 ft 527 kts 138°
2026-05-05 18:38 35.17192 27.13563 41061 ft 527 kts 138°
2026-05-05 18:38 35.11819 27.19670 41070 ft 527 kts 139°
2026-05-05 18:39 35.06483 27.25725 41058 ft 527 kts 139°
2026-05-05 18:39 35.01103 27.31809 41069 ft 527 kts 139°
2026-05-05 18:40 34.95715 27.37878 41066 ft 527 kts 139°
2026-05-05 18:40 34.90315 27.43955 41063 ft 528 kts 139°
2026-05-05 18:41 34.84920 27.50015 41070 ft 528 kts 139°
2026-05-05 18:41 34.79521 27.56068 41063 ft 528 kts 139°
2026-05-05 18:42 34.74118 27.62115 41066 ft 528 kts 139°
2026-05-05 18:42 34.68746 27.68114 41059 ft 528 kts 139°
2026-05-05 18:43 34.63341 27.74141 41065 ft 528 kts 139°
2026-05-05 18:43 34.57918 27.80176 41064 ft 527 kts 139°
2026-05-05 18:44 34.52507 27.86187 41067 ft 527 kts 139°
2026-05-05 18:44 34.47095 27.92187 41068 ft 527 kts 139°
2026-05-05 18:45 34.41715 27.98141 41070 ft 527 kts 139°
2026-05-05 18:45 34.36313 28.04109 41071 ft 527 kts 139°
2026-05-05 18:46 34.30893 28.10086 41066 ft 527 kts 140°
2026-05-05 18:46 34.25472 28.16052 41073 ft 527 kts 140°
2026-05-05 18:47 34.20048 28.22011 41070 ft 526 kts 140°
2026-05-05 18:47 34.14624 28.27959 41073 ft 526 kts 140°
2026-05-05 18:48 34.09188 28.33910 41072 ft 526 kts 140°
2026-05-05 18:48 34.03755 28.39847 41071 ft 527 kts 140°
2026-05-05 18:49 33.98353 28.45740 41076 ft 527 kts 140°
2026-05-05 18:49 33.92907 28.51668 41075 ft 527 kts 140°
2026-05-05 18:50 33.87468 28.57579 41075 ft 527 kts 140°
2026-05-05 18:50 33.82009 28.63502 41075 ft 527 kts 140°
2026-05-05 18:51 33.76585 28.69376 41078 ft 527 kts 140°
2026-05-05 18:51 33.71136 28.75269 41077 ft 526 kts 140°
2026-05-05 18:52 33.65764 28.81256 41044 ft 527 kts 139°
2026-05-05 18:52 33.60436 28.87284 41077 ft 525 kts 139°
2026-05-05 18:53 33.55123 28.93251 41081 ft 525 kts 140°
2026-05-05 18:53 33.49779 28.99229 41081 ft 525 kts 140°
2026-05-05 18:54 33.44441 29.05188 41083 ft 524 kts 140°
2026-05-05 18:54 33.39103 29.11137 41087 ft 524 kts 140°
2026-05-05 18:55 33.33791 29.17047 41083 ft 524 kts 140°
2026-05-05 18:55 33.28437 29.22992 41082 ft 525 kts 140°
2026-05-05 18:56 33.23088 29.28924 41087 ft 524 kts 140°
2026-05-05 18:56 33.17748 29.34833 41085 ft 524 kts 140°
2026-05-05 18:57 33.12396 29.40746 41087 ft 524 kts 140°
2026-05-05 18:57 33.07045 29.46647 41088 ft 524 kts 140°
2026-05-05 18:58 33.01690 29.52543 41086 ft 524 kts 140°
2026-05-05 18:58 32.96364 29.58397 41093 ft 523 kts 140°
2026-05-05 18:59 32.91008 29.64274 41090 ft 523 kts 140°
2026-05-05 18:59 32.85659 29.70132 41091 ft 523 kts 141°
2026-05-05 19:00 32.80291 29.76001 41095 ft 523 kts 141°
2026-05-05 19:00 32.74929 29.81854 41095 ft 523 kts 141°
2026-05-05 19:01 32.69569 29.87695 41090 ft 522 kts 141°
2026-05-05 19:01 32.64245 29.93487 41092 ft 521 kts 141°
2026-05-05 19:02 32.58900 29.99290 41094 ft 522 kts 141°
2026-05-05 19:02 32.53540 30.05101 41095 ft 522 kts 141°
2026-05-05 19:03 32.48177 30.10908 41094 ft 521 kts 141°
2026-05-05 19:03 32.42809 30.16696 41089 ft 521 kts 141°
2026-05-05 19:04 32.40168 30.19539 40929 ft 521 kts 141°
2026-05-05 19:04 32.37475 30.22435 40674 ft 519 kts 141°
2026-05-05 19:04 32.34805 30.25306 40423 ft 519 kts 141°
2026-05-05 19:04 32.32138 30.28172 40171 ft 517 kts 141°
2026-05-05 19:05 32.29472 30.31033 39934 ft 518 kts 141°
2026-05-05 19:05 32.26799 30.33900 39660 ft 516 kts 141°
2026-05-05 19:05 32.24127 30.36763 39434 ft 518 kts 141°
2026-05-05 19:05 32.21461 30.39616 39208 ft 519 kts 141°
2026-05-05 19:06 32.18791 30.42474 38981 ft 518 kts 142°
2026-05-05 19:06 32.16117 30.45333 38754 ft 518 kts 142°
2026-05-05 19:06 32.13476 30.48154 38482 ft 518 kts 142°
2026-05-05 19:06 32.10771 30.51040 38207 ft 519 kts 142°
2026-05-05 19:07 32.08118 30.53869 37927 ft 519 kts 142°
2026-05-05 19:07 32.06305 30.55800 37751 ft 520 kts 142°
2026-05-05 19:07 32.02767 30.59566 37416 ft 521 kts 142°
2026-05-05 19:07 32.00053 30.62453 37142 ft 522 kts 142°
2026-05-05 19:08 31.98229 30.64392 36959 ft 522 kts 142°
2026-05-05 19:08 31.95565 30.67222 36710 ft 523 kts 142°
2026-05-05 19:08 31.92860 30.70093 36453 ft 523 kts 142°
2026-05-05 19:08 31.90153 30.72963 36200 ft 524 kts 142°
2026-05-05 19:09 31.87449 30.75829 35948 ft 524 kts 142°
2026-05-05 19:09 31.84727 30.78711 35701 ft 525 kts 142°
2026-05-05 19:09 31.82010 30.81584 35458 ft 526 kts 142°
2026-05-05 19:09 31.79290 30.84460 35213 ft 527 kts 142°
2026-05-05 19:10 31.76559 30.87344 34986 ft 527 kts 142°
2026-05-05 19:10 31.73825 30.90228 34739 ft 528 kts 142°
2026-05-05 19:10 31.71129 30.93071 34499 ft 527 kts 142°
2026-05-05 19:10 31.68368 30.95981 34255 ft 525 kts 142°
2026-05-05 19:11 31.65682 30.98811 34013 ft 523 kts 142°
2026-05-05 19:11 31.62978 31.01655 33730 ft 521 kts 142°
2026-05-05 19:11 31.60290 31.04480 33461 ft 519 kts 142°
2026-05-05 19:11 31.57606 31.07298 33203 ft 517 kts 142°
2026-05-05 19:12 31.54832 31.09956 32927 ft 510 kts 151°
2026-05-05 19:12 31.51772 31.11947 32666 ft 499 kts 163°
2026-05-05 19:12 31.48520 31.13198 32343 ft 485 kts 174°
2026-05-05 19:12 31.45229 31.13841 31772 ft 477 kts 179°
2026-05-05 19:13 31.41950 31.14395 31181 ft 473 kts 179°
2026-05-05 19:13 31.38715 31.14954 30596 ft 468 kts 179°
2026-05-05 19:13 31.35511 31.15529 30000 ft 464 kts 178°
2026-05-05 19:13 31.32328 31.16113 29312 ft 460 kts 178°
2026-05-05 19:14 31.29173 31.16699 28652 ft 456 kts 178°
2026-05-05 19:14 31.26065 31.17280 28005 ft 452 kts 178°
2026-05-05 19:14 31.23014 31.17850 27377 ft 448 kts 178°
2026-05-05 19:14 31.19909 31.18430 26731 ft 444 kts 178°
2026-05-05 19:15 31.16904 31.18990 26130 ft 440 kts 178°
2026-05-05 19:15 31.13888 31.19553 25487 ft 437 kts 178°
2026-05-05 19:15 31.10902 31.20109 24888 ft 434 kts 178°
2026-05-05 19:15 31.07932 31.20662 24287 ft 431 kts 178°
2026-05-05 19:16 31.04971 31.21212 23702 ft 428 kts 178°
2026-05-05 19:16 31.02047 31.21756 23056 ft 424 kts 178°
2026-05-05 19:16 30.99143 31.22296 22457 ft 420 kts 178°
2026-05-05 19:16 30.96277 31.22829 21854 ft 415 kts 178°
2026-05-05 19:17 30.93424 31.23358 21249 ft 412 kts 178°
2026-05-05 19:17 30.90603 31.23881 20651 ft 408 kts 178°
2026-05-05 19:17 30.87851 31.24391 20101 ft 404 kts 178°
2026-05-05 19:17 30.85092 31.24903 19564 ft 399 kts 177°
2026-05-05 19:18 30.82354 31.25410 18980 ft 396 kts 177°
2026-05-05 19:18 30.79639 31.25911 18455 ft 393 kts 177°
2026-05-05 19:18 30.76944 31.26409 17841 ft 390 kts 177°
2026-05-05 19:18 30.74280 31.26902 17255 ft 386 kts 177°
2026-05-05 19:19 30.71668 31.27384 16678 ft 382 kts 176°
2026-05-05 19:19 30.69061 31.27865 16107 ft 378 kts 176°
2026-05-05 19:19 30.66473 31.28342 15643 ft 374 kts 176°
2026-05-05 19:19 30.63902 31.28816 15374 ft 374 kts 176°
2026-05-05 19:20 30.61334 31.29289 15128 ft 374 kts 176°
2026-05-05 19:20 30.58757 31.29763 14894 ft 373 kts 176°
2026-05-05 19:20 30.56191 31.30236 14657 ft 371 kts 176°
2026-05-05 19:20 30.53649 31.30704 14423 ft 370 kts 176°
2026-05-05 19:21 30.51100 31.31173 14190 ft 368 kts 176°
2026-05-05 19:21 30.48579 31.31636 13960 ft 367 kts 176°
2026-05-05 19:21 30.46066 31.32098 13708 ft 366 kts 176°
2026-05-05 19:21 30.43557 31.32559 13441 ft 364 kts 175°
2026-05-05 19:22 30.41094 31.33011 13190 ft 362 kts 175°
2026-05-05 19:22 30.38609 31.33467 12911 ft 361 kts 175°
2026-05-05 19:22 30.36135 31.33921 12663 ft 360 kts 175°
2026-05-05 19:22 30.33721 31.34363 12409 ft 358 kts 175°
2026-05-05 19:23 30.31250 31.34814 11855 ft 360 kts 175°
2026-05-05 19:23 30.28770 31.35266 11053 ft 363 kts 174°
2026-05-05 19:23 30.26287 31.35719 10610 ft 354 kts 174°
2026-05-05 19:23 30.23915 31.36158 10454 ft 337 kts 174°
2026-05-05 19:24 30.21648 31.36578 10316 ft 322 kts 174°
2026-05-05 19:24 30.19479 31.36977 10197 ft 308 kts 174°
2026-05-05 19:24 30.17414 31.37355 10045 ft 297 kts 174°
2026-05-05 19:24 30.15385 31.37724 9651 ft 293 kts 174°
2026-05-05 19:25 30.13393 31.38084 9238 ft 292 kts 174°
2026-05-05 19:25 30.11392 31.38448 8803 ft 291 kts 174°
2026-05-05 19:25 30.09403 31.38593 8404 ft 282 kts 187°
2026-05-05 19:25 30.07512 31.38117 7765 ft 277 kts 204°
2026-05-05 19:26 30.05739 31.37232 7212 ft 277 kts 206°
2026-05-05 19:26 30.03976 31.36348 6743 ft 274 kts 205°
2026-05-05 19:26 30.02229 31.35502 6238 ft 273 kts 204°
2026-05-05 19:26 30.00465 31.34672 5716 ft 272 kts 204°
2026-05-05 19:27 29.98710 31.33860 5220 ft 272 kts 204°
2026-05-05 19:27 29.96944 31.33046 4713 ft 272 kts 203°
2026-05-05 19:27 29.95184 31.32239 4069 ft 276 kts 204°
2026-05-05 19:27 29.93396 31.31419 3538 ft 277 kts 204°
2026-05-05 19:28 29.91791 31.30308 3042 ft 270 kts 227°
2026-05-05 19:28 29.90815 31.28521 2630 ft 262 kts 257°
2026-05-05 19:28 29.90717 31.26485 2506 ft 252 kts 286°
2026-05-05 19:28 29.91453 31.24755 2493 ft 231 kts 315°
2026-05-05 19:29 29.92721 31.23833 2491 ft 207 kts 346°
2026-05-05 19:29 29.94097 31.23693 2495 ft 192 kts 359°
2026-05-05 19:29 29.95368 31.23753 2502 ft 170 kts
2026-05-05 19:29 29.96512 31.23867 2494 ft 165 kts
2026-05-05 19:30 29.97601 31.24237 2495 ft 158 kts 22°
2026-05-05 19:30 29.98477 31.24859 2494 ft 139 kts 32°
2026-05-05 19:30 29.99167 31.25582 2491 ft 131 kts 39°
2026-05-05 19:30 29.99787 31.26353 2497 ft 131 kts 41°
2026-05-05 19:31 30.00382 31.27136 2495 ft 129 kts 43°
2026-05-05 19:31 30.00975 31.27920 2499 ft 130 kts 43°
2026-05-05 19:31 30.01568 31.28700 2498 ft 130 kts 43°
2026-05-05 19:31 30.02167 31.29498 2502 ft 131 kts 43°
2026-05-05 19:32 30.02758 31.30276 2498 ft 131 kts 43°
2026-05-05 19:32 30.03354 31.31069 2499 ft 130 kts 43°
2026-05-05 19:32 30.03950 31.31858 2465 ft 130 kts 43°
2026-05-05 19:32 30.04540 31.32642 2287 ft 129 kts 43°
2026-05-05 19:33 30.05126 31.33418 2121 ft 128 kts 42°
2026-05-05 19:33 30.05712 31.34192 1948 ft 128 kts 42°
2026-05-05 19:33 30.06296 31.34969 1776 ft 128 kts 42°
2026-05-05 19:33 30.06876 31.35740 1614 ft 129 kts 42°
2026-05-05 19:34 30.07462 31.36517 1430 ft 128 kts 43°
2026-05-05 19:34 30.08038 31.37279 1265 ft 128 kts 42°
2026-05-05 19:34 30.08638 31.38068 923 ft 133 kts 44°
2026-05-05 19:35 30.09795 31.39584 518 ft 124 kts 46°
2026-05-05 19:35 30.10361 31.40340 382 ft 116 kts 48°
2026-05-05 19:35 30.10743 31.40857 376 ft 44 kts 49°
2026-05-05 19:35 30.10848 31.40996 377 ft 29 kts 48°
2026-05-05 19:36 30.11011 31.41208 380 ft 41 kts 48°
2026-05-05 19:36 30.11223 31.41480 378 ft 48 kts 43°
2026-05-05 19:36 30.11413 31.41600 380 ft 16 kts 22°
2026-05-05 19:36 30.11533 31.41620 380 ft 17 kts 334°
2026-05-05 19:37 30.11541 31.41511 380 ft 18 kts 232°
2026-05-05 19:37 30.11435 31.41377 380 ft 27 kts 226°
2026-05-05 19:37 30.11293 31.41191 380 ft 35 kts 229°
2026-05-05 19:37 30.11122 31.40959 380 ft 41 kts 229°
2026-05-05 19:38 30.10930 31.40706 380 ft 42 kts 229°
2026-05-05 19:38 30.10743 31.40456 379 ft 40 kts 229°
2026-05-05 19:38 30.10686 31.40370 379 ft 8 kts 255°
2026-05-05 19:38 30.10698 31.40312 379 ft 3 kts 316°
2026-05-05 19:39 30.10722 31.40296 379 ft 2 kts 354°
2026-05-05 19:39 30.10739 31.40301 379 ft 3 kts 37°
2026-05-05 19:39 30.10762 31.40328 379 ft 7 kts 47°
2026-05-05 19:39 30.10801 31.40377 379 ft 10 kts 47°
2026-05-05 19:40 30.10853 31.40440 379 ft 10 kts 33°
2026-05-05 19:40 30.10912 31.40437 379 ft 9 kts 324°
2026-05-05 19:40 30.10946 31.40373 379 ft 11 kts 291°
2026-05-05 19:40 30.10959 31.40334 379 ft 0 kts 291°
2026-05-05 19:41 30.10969 31.40313 379 ft 3 kts 320°
2026-05-05 19:41 30.10980 31.40304 379 ft 0 kts 332°
2026-05-05 19:42 30.10982 31.40303 379 ft 1 kts 334°
2026-05-05 19:42 30.10992 31.40299 379 ft 1 kts
2026-05-05 19:42 30.11007 31.40303 379 ft 5 kts 12°
2026-05-05 19:42 30.11036 31.40311 379 ft 1 kts 15°
2026-05-05 19:43 30.11043 31.40313 379 ft 2 kts 15°
2026-05-05 19:43 30.11054 31.40317 379 ft 0 kts 15°